FENGYUN 1C DEB, 35240

Orbit data source: Space-Track

FENGYUN 1C DEB, 35240 is space debris in SSO originally from a launch on Mon, 10 May 1999 UTC launched from the Taiyaun Space Center, China (TSC). Fengyun 1C debris stems from the Chinese weather satellite Fengyun-1C, which was intentionally destroyed by a Chinese anti-satellite missile in 2007. This event dramatically increased the amount of space debris, with thousands of trackable fragments posing hazards to satellites and human spaceflight. The Fengyun 1C debris cloud has become a focal point in discussions about space sustainability and the need for international regulations to prevent the creation of new debris.

Loading next visibility...
Identifier
35240, 1999-025DQY
Orbit
SSO
Country
Flag of CNCN / PRC
Related business
Manufacturer
Unknown
Mission
Spacecraft
Bus & Motor
Unknown
Mass
Unknown
Launch date (UTC)
1999-05-10 (26 years ago)
Launch vehicle
Unknown
Launch site
Taiyaun Space Center, China (TSC)
Object type
Payload
Rocket body
Debris
Shape & HBR
Unknown shape, 0.1 m
Radar Cross Section
Small (<0.1 m²)

Expand to show TLE details & history
Last TLE update: 1 day ago

TLE from 1 day ago
0 FENGYUN 1C DEB
1 35240U 99025DQY 25309.60364696  .00004495  00000-0  20009-2 0  9993
2 35240  99.3477 269.7553 0046007 260.1883  99.4097 14.22846243926367
Epoch: 2025-11-05T14:29Z
TLE epoch observation values (Epoch: 2025-11-05T14:29:15.097Z)
Latitude
0.00005°
Longitude
7.36845°
Altitude
824.2 km
Speed
7.438 km/s
True Right ascension
17h 59m 01s
True Declination
0° 00' 00"
Sunlit
Object was in daylight at epoch
Visualization orbit readout
Latitude
Unknown
Longitude
Unknown
Altitude
Unknown
Speed
Unknown
Apparent Right ascension
Unknown
Apparent Declination
Unknown
Sunlit
N/A
Visualization observer readout
Local Sidereal Time
18:52:40
Azimuth
Unknown
Elevation
Unknown
Doppler factor
Unknown
Orbital elements
Apogee altitude
846.013 km
Perigee altitude
779.846 km
Semi-major axis
7,191.066 km
Eccentricity
0.0046
Inclination
99.3477°
RAAN
269.7553°
Arg. of periapsis
260.1883°
True anomaly
99.92931°
Mean anomaly
99.4097°
Eccentric anomaly
99.66956°
Mean motion
3.55921 °/min
Orbital period
101.15 mins
BSTAR
0.0020009
Loading maneuver chart data...
Computing Atmospheric mass density...

Documentation

Showing up to 5 results
|